Погода в Биркиркаре

Мальта     35°52′43″N   14°28′12″E
темп.,
°C
ветер,
м/с
пор.,
м/с
влажн.,
%
обл.,
%
осадки,
мм/ч
давл.,
гПа
погр.,
м
27 ноября, сб
сб2701:00+19юз91156100 0.0 10091499
04:00+19юз91257100 0.0 10081379
07:00+19юз81058100 0.0 10071211
10:00+18зюз7966100 0.1 1007720
13:00+18зсз886712 0.4 1004675
16:00+18зсз811685 0.8 1006963
19:00+18з911620 0.9 10081498
22:00+19зюз811540 0.0 10091634
28 ноября, вс
вс2801:00+19зюз11155479 0.0 10081564
04:00+19зюз131655100 0.0 10061561
07:00+15з91085100 3.8 1007965
10:00+14з91288100 6.3 1008909
13:00+16юз91483100 10.6 10041188
16:00+17з13157175 2.2 10041396
19:00+18зюз11145710 2.3 10052032
22:00+16з1113695 0.7 10071270
29 ноября, пн
пн2901:00+15з13156232 1.3 10071683
04:00+15з1416595 0.5 10071995
07:00+16зюз1416495 0.5 10082419
10:00+16зюз14174935 0.0 10092626
13:00+16зюз15185774 0.1 10072381
16:00+16зюз162058100 0.2 10072400
19:00+15з1821616 0.7 10102125
22:00+15з20235894 0.6 10122391
30 ноября, вт
вт3001:00+15з192259100 1.8 10132375
04:00+15зсз192354100 0.6 10142692
07:00+15сз15175258 0.6 10162294
10:00+16зсз12135172 0.0 10202449
13:00+16зсз11125194 0.0 10202388
16:00+16зсз101253100 0.0 10212164
19:00+16зсз12135284 0.0 10232206
22:00+15сз101256100 0.1 10241958
1 декабря, ср
ср101:00+16сз10125693 0.1 10241835
04:00+16сз81055100 0.0 10241719
07:00+16зсз9105542 0.1 10241764
10:00+16сз81057100 0.1 10251665
13:00+16сз885893 0.1 10241405
16:00+16з676743 0.1 10221122
19:00+16з68610 0.3 10221326
22:00+17зюз68620 0.0 10211269